Location: Prairie Dale
(45.6972°N, 104.5033°W)
Time: 00:31:17
(UTC+00:00)

EO-79 - Pass Details

Date: 07 July 2022
Orbit: 588 x 603 km, 98.0° (Epoch: 15 August)

Event Time Altitude Azimuth Distance (km) Brightness Sun altitude
Rises 08:23:56 0° 18° (NNE) 2,861 ? -19.3°
Reaches altitude 10° 08:26:10 10° 23° (NNE) 1,956 ? -19.2°
Maximum altitude 08:30:18 51° 100° (E) 765 ? -18.9°
Enters shadow 08:31:54 33° 157° (SSE) 1,031 ? -18.8°
